Language: 


Des rapports , des résumés tant et plus, au choix de chacun....


Données statistiques de la station
Quotidien Rapport Juillet 27, 2017 Unités:  Métrique    Anglais   les deux
« Précédent Jour
Suivant Jour »
Quotidien Hebdomadaire Mensuel Annuel Actuel
  Haut: Bas: Moyen:
Température: 24.3 °C 14.9 °C 18.9 °C
Pt de rosée: 18.0 °C 9.0 °C 13.3 °C
Humidité: 96 % 38 % 72 %
Vitesse du vent: 29.9 km/h 0.0 km/h 12.2 km/h
Rafales: 36.0 km/h - -
Vent:- - WSW
Pression: 1010.0 hPa 1006.0 hPa -
Précipitation: 0.3 mm    
Historical Graphs
 
 
Données statistiques pour Juillet 27, 2017
Heure Température Point de rosée Pression Vent Vitesse du vent Refales Humidité Pluie (taux horaire)
00:00 19.4 °C 18.0 °C 1007.0 hPa WSW 10.1 km/h 16.3 km/h 92 % 0.0 mm
00:05 19.3 °C 18.0 °C 1007.0 hPa West 9.0 km/h 13.0 km/h 92 % 0.0 mm
00:10 19.3 °C 18.0 °C 1007.0 hPa WSW 9.3 km/h 14.0 km/h 92 % 0.0 mm
00:15 19.3 °C 18.0 °C 1007.0 hPa West 9.0 km/h 16.6 km/h 92 % 0.0 mm
00:20 19.3 °C 18.0 °C 1007.0 hPa WSW 12.2 km/h 16.6 km/h 92 % 0.0 mm
00:25 19.3 °C 18.0 °C 1006.0 hPa WSW 12.2 km/h 15.1 km/h 92 % 0.0 mm
00:30 19.3 °C 18.0 °C 1006.0 hPa WSW 6.4 km/h 15.1 km/h 92 % 0.0 mm
00:35 19.3 °C 18.0 °C 1006.0 hPa WSW 12.2 km/h 21.6 km/h 92 % 0.0 mm
00:40 19.2 °C 18.0 °C 1007.0 hPa WSW 12.6 km/h 21.6 km/h 93 % 0.0 mm
00:45 19.1 °C 18.0 °C 1007.0 hPa WSW 9.7 km/h 17.2 km/h 93 % 0.0 mm
00:50 18.9 °C 18.0 °C 1007.0 hPa West 21.6 km/h 23.8 km/h 94 % 0.0 mm
00:55 18.7 °C 18.0 °C 1007.0 hPa West 15.4 km/h 23.8 km/h 94 % 0.0 mm
00:56 18.6 °C 18.0 °C 1007.0 hPa West 21.6 km/h 23.8 km/h 94 % 0.0 mm
01:01 18.5 °C 18.0 °C 1007.0 hPa WSW 12.6 km/h 22.7 km/h 94 % 0.0 mm
01:06 18.3 °C 18.0 °C 1007.0 hPa West 5.5 km/h 21.6 km/h 95 % 0.0 mm
01:11 18.2 °C 18.0 °C 1007.0 hPa West 21.6 km/h 21.6 km/h 95 % 0.0 mm
01:16 18.2 °C 17.0 °C 1007.0 hPa WSW 16.3 km/h 23.8 km/h 94 % 0.3 mm
01:21 18.2 °C 17.0 °C 1007.0 hPa SW 16.3 km/h 23.8 km/h 94 % 0.3 mm
01:26 18.1 °C 17.0 °C 1007.0 hPa WSW 13.0 km/h 20.9 km/h 95 % 0.3 mm
01:31 18.1 °C 17.0 °C 1007.0 hPa West 15.4 km/h 21.2 km/h 95 % 0.3 mm
01:36 18.1 °C 17.0 °C 1007.0 hPa WSW 13.0 km/h 21.2 km/h 95 % 0.3 mm
01:41 18.1 °C 17.0 °C 1007.0 hPa WSW 14.3 km/h 20.9 km/h 95 % 0.3 mm
01:46 18.1 °C 17.0 °C 1007.0 hPa WSW 14.0 km/h 22.7 km/h 94 % 0.3 mm
01:51 18.1 °C 17.0 °C 1007.0 hPa West 15.4 km/h 22.7 km/h 94 % 0.3 mm
01:56 18.1 °C 17.0 °C 1007.0 hPa West 12.2 km/h 20.1 km/h 94 % 0.3 mm
02:01 18.0 °C 17.0 °C 1007.0 hPa West 12.2 km/h 20.9 km/h 94 % 0.3 mm
02:06 18.0 °C 17.0 °C 1007.0 hPa WSW 10.5 km/h 20.9 km/h 94 % 0.3 mm
02:11 18.0 °C 17.0 °C 1007.0 hPa WSW 13.0 km/h 19.5 km/h 94 % 0.3 mm
02:16 18.0 °C 17.0 °C 1007.0 hPa West 9.3 km/h 17.7 km/h 94 % 0.0 mm
02:21 17.9 °C 17.0 °C 1007.0 hPa WSW 9.7 km/h 13.7 km/h 94 % 0.0 mm
02:22 17.9 °C 17.0 °C 1007.0 hPa West 9.7 km/h 13.7 km/h 94 % 0.0 mm
02:27 17.9 °C 17.0 °C 1006.0 hPa West 11.9 km/h 12.6 km/h 94 % 0.0 mm
02:32 17.8 °C 17.0 °C 1006.0 hPa West 15.4 km/h 16.3 km/h 94 % 0.0 mm
02:37 17.8 °C 17.0 °C 1006.0 hPa SSW 11.9 km/h 20.9 km/h 94 % 0.0 mm
02:43 17.8 °C 17.0 °C 1007.0 hPa West 12.6 km/h 20.9 km/h 94 % 0.0 mm
02:48 17.8 °C 17.0 °C 1007.0 hPa West 16.9 km/h 20.9 km/h 93 % 0.0 mm
02:53 17.7 °C 17.0 °C 1007.0 hPa West 16.3 km/h 23.8 km/h 93 % 0.0 mm
02:58 17.5 °C 17.0 °C 1007.0 hPa West 13.0 km/h 23.8 km/h 93 % 0.0 mm
03:03 17.3 °C 16.0 °C 1007.0 hPa West 10.1 km/h 30.6 km/h 91 % 0.0 mm
03:08 17.1 °C 15.0 °C 1007.0 hPa WSW 19.5 km/h 30.6 km/h 90 % 0.0 mm
03:13 16.9 °C 15.0 °C 1007.0 hPa West 14.0 km/h 20.9 km/h 90 % 0.0 mm
03:18 16.8 °C 15.0 °C 1007.0 hPa WSW 12.2 km/h 21.9 km/h 90 % 0.0 mm
03:23 16.8 °C 15.0 °C 1007.0 hPa West 12.2 km/h 25.3 km/h 90 % 0.0 mm
03:27 16.7 °C 15.0 °C 1006.0 hPa West 13.7 km/h 25.3 km/h 90 % 0.0 mm
03:32 16.5 °C 15.0 °C 1006.0 hPa SSW 13.0 km/h 17.7 km/h 91 % 0.0 mm
03:37 16.5 °C 15.0 °C 1006.0 hPa WSW 10.5 km/h 20.6 km/h 91 % 0.0 mm
03:42 16.4 °C 15.0 °C 1007.0 hPa WSW 8.7 km/h 20.6 km/h 91 % 0.0 mm
03:48 16.3 °C 15.0 °C 1007.0 hPa WSW 9.7 km/h 17.7 km/h 92 % 0.0 mm
03:53 16.1 °C 15.0 °C 1007.0 hPa West 9.7 km/h 17.2 km/h 92 % 0.0 mm
03:58 16.1 °C 15.0 °C 1007.0 hPa WSW 10.5 km/h 13.0 km/h 92 % 0.0 mm
04:03 16.0 °C 15.0 °C 1007.0 hPa West 12.2 km/h 13.0 km/h 92 % 0.0 mm
04:08 15.9 °C 15.0 °C 1007.0 hPa Calm   12.2 km/h 93 % 0.0 mm
04:13 15.8 °C 15.0 °C 1007.0 hPa WSW 9.0 km/h 13.0 km/h 93 % 0.0 mm
04:18 15.8 °C 15.0 °C 1007.0 hPa WSW 10.5 km/h 13.0 km/h 94 % 0.0 mm
04:23 15.6 °C 15.0 °C 1007.0 hPa West 7.2 km/h 10.5 km/h 94 % 0.0 mm
04:28 15.6 °C 15.0 °C 1007.0 hPa WSW 9.7 km/h 10.5 km/h 94 % 0.0 mm
04:33 15.5 °C 15.0 °C 1007.0 hPa Calm   10.5 km/h 94 % 0.0 mm
04:38 15.5 °C 15.0 °C 1007.0 hPa West 4.3 km/h 7.9 km/h 94 % 0.0 mm
04:43 15.4 °C 14.0 °C 1007.0 hPa Calm   9.7 km/h 94 % 0.0 mm
04:48 15.4 °C 14.0 °C 1007.0 hPa Calm   9.7 km/h 94 % 0.0 mm
04:53 15.3 °C 14.0 °C 1007.0 hPa Calm   7.9 km/h 94 % 0.0 mm
04:58 15.3 °C 14.0 °C 1007.0 hPa Calm   7.9 km/h 94 % 0.0 mm
05:03 15.2 °C 15.0 °C 1007.0 hPa West 7.9 km/h 7.9 km/h 95 % 0.0 mm
05:08 15.2 °C 15.0 °C 1007.0 hPa Calm   7.9 km/h 95 % 0.0 mm
05:13 15.2 °C 15.0 °C 1007.0 hPa Calm   8.7 km/h 95 % 0.0 mm
05:18 15.2 °C 15.0 °C 1007.0 hPa Calm   8.7 km/h 95 % 0.0 mm
05:23 15.2 °C 15.0 °C 1007.0 hPa SW 8.7 km/h 9.3 km/h 95 % 0.0 mm
05:28 15.4 °C 15.0 °C 1007.0 hPa WSW 7.9 km/h 10.1 km/h 96 % 0.0 mm
05:33 15.4 °C 15.0 °C 1007.0 hPa SW 6.1 km/h 10.5 km/h 96 % 0.0 mm
05:39 15.5 °C 15.0 °C 1007.0 hPa SW 4.3 km/h 10.5 km/h 96 % 0.0 mm
05:44 15.5 °C 15.0 °C 1006.0 hPa WSW 5.0 km/h 9.0 km/h 96 % 0.0 mm
05:49 15.5 °C 15.0 °C 1006.0 hPa SW 8.7 km/h 9.0 km/h 96 % 0.0 mm
05:54 15.5 °C 15.0 °C 1006.0 hPa SW 6.9 km/h 13.0 km/h 96 % 0.0 mm
05:59 15.6 °C 15.0 °C 1007.0 hPa WSW 5.8 km/h 13.0 km/h 96 % 0.0 mm
06:04 15.5 °C 15.0 °C 1007.0 hPa SW 6.1 km/h 10.8 km/h 96 % 0.0 mm
06:09 15.5 °C 15.0 °C 1007.0 hPa SW 6.9 km/h 10.1 km/h 96 % 0.0 mm
06:14 15.5 °C 15.0 °C 1007.0 hPa SW 1.8 km/h 10.1 km/h 96 % 0.0 mm
06:19 15.5 °C 15.0 °C 1007.0 hPa WSW 7.9 km/h 10.1 km/h 95 % 0.0 mm
06:24 15.4 °C 15.0 °C 1007.0 hPa WSW 6.4 km/h 10.5 km/h 95 % 0.0 mm
06:29 15.4 °C 15.0 °C 1008.0 hPa WSW 8.7 km/h 14.0 km/h 96 % 0.0 mm
06:34 15.4 °C 15.0 °C 1008.0 hPa SW 1.8 km/h 14.0 km/h 95 % 0.0 mm
06:39 15.4 °C 15.0 °C 1008.0 hPa WSW 4.7 km/h 8.7 km/h 95 % 0.0 mm
06:44 15.4 °C 15.0 °C 1008.0 hPa WSW 5.8 km/h 9.0 km/h 95 % 0.0 mm
06:49 15.4 °C 15.0 °C 1008.0 hPa Calm   9.0 km/h 95 % 0.0 mm
06:54 15.4 °C 15.0 °C 1008.0 hPa WSW 8.7 km/h 9.7 km/h 96 % 0.0 mm
06:55 15.4 °C 15.0 °C 1008.0 hPa WSW 6.4 km/h 9.7 km/h 96 % 0.0 mm
07:00 15.4 °C 15.0 °C 1008.0 hPa West 1.8 km/h 9.7 km/h 96 % 0.0 mm
07:05 15.4 °C 15.0 °C 1008.0 hPa WSW 4.7 km/h 9.3 km/h 96 % 0.0 mm
07:10 15.5 °C 15.0 °C 1007.0 hPa WSW 1.4 km/h 8.7 km/h 96 % 0.0 mm
07:15 15.6 °C 15.0 °C 1007.0 hPa Calm   9.3 km/h 96 % 0.0 mm
07:20 15.6 °C 15.0 °C 1007.0 hPa WSW 6.4 km/h 9.3 km/h 95 % 0.0 mm
07:25 15.7 °C 15.0 °C 1008.0 hPa Calm   9.3 km/h 95 % 0.0 mm
07:30 15.8 °C 15.0 °C 1008.0 hPa Calm   9.3 km/h 95 % 0.0 mm
07:35 15.8 °C 15.0 °C 1008.0 hPa WSW 4.0 km/h 10.5 km/h 95 % 0.0 mm
07:40 15.9 °C 15.0 °C 1008.0 hPa WSW 6.1 km/h 10.5 km/h 95 % 0.0 mm
07:46 16.0 °C 15.0 °C 1008.0 hPa SSW 6.9 km/h 13.0 km/h 94 % 0.0 mm
07:51 16.1 °C 15.0 °C 1008.0 hPa West 6.9 km/h 13.0 km/h 94 % 0.0 mm
07:56 16.2 °C 15.0 °C 1008.0 hPa WSW 6.1 km/h 10.5 km/h 93 % 0.0 mm
08:01 16.3 °C 15.0 °C 1008.0 hPa WSW 5.5 km/h 11.6 km/h 93 % 0.0 mm
08:06 16.4 °C 15.0 °C 1008.0 hPa SSW 6.1 km/h 11.6 km/h 93 % 0.0 mm
08:07 16.4 °C 15.0 °C 1008.0 hPa SSW 4.0 km/h 11.6 km/h 93 % 0.0 mm
08:12 16.5 °C 16.0 °C 1007.0 hPa WSW 7.2 km/h 10.5 km/h 93 % 0.0 mm
08:17 16.6 °C 15.0 °C 1007.0 hPa WSW 4.3 km/h 9.7 km/h 92 % 0.0 mm
08:22 16.6 °C 15.0 °C 1007.0 hPa WSW 7.9 km/h 10.1 km/h 92 % 0.0 mm
08:27 16.7 °C 15.0 °C 1008.0 hPa WSW 6.4 km/h 14.0 km/h 92 % 0.0 mm
08:32 17.0 °C 16.0 °C 1008.0 hPa West 5.8 km/h 14.0 km/h 91 % 0.0 mm
08:37 17.2 °C 16.0 °C 1008.0 hPa West 6.4 km/h 14.0 km/h 90 % 0.0 mm
08:42 17.4 °C 16.0 °C 1008.0 hPa West 11.6 km/h 14.0 km/h 90 % 0.0 mm
08:47 17.8 °C 16.0 °C 1008.0 hPa WSW 10.5 km/h 12.6 km/h 89 % 0.0 mm
08:52 17.7 °C 15.0 °C 1008.0 hPa West 12.6 km/h 17.2 km/h 86 % 0.0 mm
08:57 17.7 °C 15.0 °C 1009.0 hPa WSW 12.2 km/h 17.2 km/h 85 % 0.0 mm
09:02 17.9 °C 15.0 °C 1009.0 hPa West 12.2 km/h 20.9 km/h 83 % 0.0 mm
09:07 18.2 °C 15.0 °C 1009.0 hPa West 6.4 km/h 20.9 km/h 83 % 0.0 mm
09:12 17.9 °C 15.0 °C 1008.0 hPa West 12.6 km/h 15.4 km/h 81 % 0.0 mm
09:17 17.9 °C 15.0 °C 1008.0 hPa West 16.6 km/h 16.6 km/h 80 % 0.0 mm
09:22 18.4 °C 15.0 °C 1008.0 hPa WSW 8.7 km/h 19.1 km/h 80 % 0.0 mm
09:27 18.6 °C 15.0 °C 1008.0 hPa SW 16.9 km/h 19.5 km/h 79 % 0.0 mm
09:32 18.6 °C 15.0 °C 1008.0 hPa West 17.2 km/h 20.6 km/h 78 % 0.0 mm
09:37 18.4 °C 14.0 °C 1008.0 hPa West 13.7 km/h 20.6 km/h 77 % 0.0 mm
09:42 18.3 °C 14.0 °C 1009.0 hPa WSW 17.7 km/h 20.6 km/h 75 % 0.0 mm
09:47 18.4 °C 14.0 °C 1009.0 hPa WSW 10.1 km/h 20.6 km/h 76 % 0.0 mm
09:52 18.5 °C 14.0 °C 1009.0 hPa WSW 8.7 km/h 17.2 km/h 76 % 0.0 mm
09:58 18.4 °C 14.0 °C 1009.0 hPa West 16.6 km/h 20.9 km/h 76 % 0.0 mm
10:03 18.4 °C 14.0 °C 1009.0 hPa WSW 10.5 km/h 20.9 km/h 76 % 0.0 mm
10:08 18.4 °C 14.0 °C 1009.0 hPa WSW 14.0 km/h 17.2 km/h 76 % 0.0 mm
10:13 18.5 °C 15.0 °C 1009.0 hPa WSW 10.1 km/h 16.6 km/h 77 % 0.0 mm
10:18 18.5 °C 14.0 °C 1009.0 hPa WSW 14.0 km/h 18.3 km/h 76 % 0.0 mm
10:23 18.6 °C 15.0 °C 1009.0 hPa WSW 12.2 km/h 18.3 km/h 77 % 0.0 mm
10:28 18.7 °C 14.0 °C 1009.0 hPa West 10.5 km/h 17.2 km/h 75 % 0.0 mm
10:33 18.9 °C 15.0 °C 1009.0 hPa West 10.1 km/h 16.9 km/h 76 % 0.0 mm
10:39 19.0 °C 15.0 °C 1009.0 hPa West 13.0 km/h 14.3 km/h 76 % 0.0 mm
10:44 18.9 °C 14.0 °C 1009.0 hPa West 14.0 km/h 17.2 km/h 73 % 0.0 mm
10:49 18.9 °C 14.0 °C 1009.0 hPa WSW 13.7 km/h 17.2 km/h 73 % 0.0 mm
10:54 18.9 °C 14.0 °C 1009.0 hPa WSW 15.8 km/h 21.9 km/h 71 % 0.0 mm
10:59 19.0 °C 13.0 °C 1009.0 hPa SW 9.0 km/h 21.9 km/h 70 % 0.0 mm
11:04 19.3 °C 14.0 °C 1009.0 hPa West 5.8 km/h 16.9 km/h 71 % 0.0 mm
11:09 19.6 °C 14.0 °C 1009.0 hPa WSW 9.7 km/h 16.6 km/h 71 % 0.0 mm
11:14 19.9 °C 14.0 °C 1009.0 hPa WSW 9.3 km/h 14.3 km/h 70 % 0.0 mm
11:19 20.3 °C 14.0 °C 1009.0 hPa WSW 9.0 km/h 14.0 km/h 69 % 0.0 mm
11:24 20.6 °C 14.0 °C 1009.0 hPa WSW 15.8 km/h 15.8 km/h 67 % 0.0 mm
11:29 20.6 °C 14.0 °C 1009.0 hPa WSW 14.3 km/h 15.8 km/h 65 % 0.0 mm
11:34 20.7 °C 14.0 °C 1009.0 hPa WSW 14.0 km/h 15.8 km/h 65 % 0.0 mm
11:39 20.6 °C 13.0 °C 1009.0 hPa West 10.5 km/h 15.8 km/h 63 % 0.0 mm
11:44 20.5 °C 13.0 °C 1009.0 hPa West 16.9 km/h 16.9 km/h 61 % 0.0 mm
11:49 20.7 °C 13.0 °C 1009.0 hPa West 12.2 km/h 20.1 km/h 62 % 0.0 mm
11:54 20.7 °C 13.0 °C 1009.0 hPa West 13.7 km/h 20.9 km/h 61 % 0.0 mm
11:59 20.6 °C 13.0 °C 1009.0 hPa West 15.8 km/h 20.9 km/h 62 % 0.0 mm
12:05 20.9 °C 13.0 °C 1009.0 hPa West 20.1 km/h 20.1 km/h 62 % 0.0 mm
12:10 21.0 °C 13.0 °C 1009.0 hPa West 11.9 km/h 20.1 km/h 59 % 0.0 mm
12:15 21.1 °C 13.0 °C 1009.0 hPa WSW 17.7 km/h 17.7 km/h 61 % 0.0 mm
12:20 21.4 °C 13.0 °C 1009.0 hPa West 8.7 km/h 17.7 km/h 59 % 0.0 mm
12:25 22.0 °C 14.0 °C 1009.0 hPa WSW 9.3 km/h 21.2 km/h 60 % 0.0 mm
12:30 21.7 °C 13.0 °C 1009.0 hPa WSW 12.6 km/h 21.2 km/h 56 % 0.0 mm
12:35 21.2 °C 12.0 °C 1009.0 hPa West 17.7 km/h 20.9 km/h 55 % 0.0 mm
12:40 21.0 °C 12.0 °C 1009.0 hPa West 12.2 km/h 19.8 km/h 57 % 0.0 mm
12:45 21.4 °C 13.0 °C 1008.0 hPa WSW 10.1 km/h 17.7 km/h 58 % 0.0 mm
12:50 21.4 °C 13.0 °C 1008.0 hPa West 17.7 km/h 21.9 km/h 57 % 0.0 mm
12:55 21.5 °C 12.0 °C 1009.0 hPa West 14.0 km/h 21.9 km/h 53 % 0.0 mm
13:00 21.3 °C 12.0 °C 1009.0 hPa West 11.9 km/h 17.2 km/h 56 % 0.0 mm
13:05 21.1 °C 12.0 °C 1009.0 hPa WSW 5.8 km/h 17.2 km/h 57 % 0.0 mm
13:10 20.7 °C 12.0 °C 1008.0 hPa WSW 7.6 km/h 15.8 km/h 57 % 0.0 mm
13:15 20.4 °C 11.0 °C 1008.0 hPa WSW 9.3 km/h 16.6 km/h 55 % 0.0 mm
13:20 20.2 °C 11.0 °C 1008.0 hPa West 12.2 km/h 16.6 km/h 54 % 0.0 mm
13:25 20.3 °C 11.0 °C 1008.0 hPa SW 8.7 km/h 17.2 km/h 53 % 0.0 mm
13:30 20.7 °C 12.0 °C 1008.0 hPa WNW 5.5 km/h 17.2 km/h 56 % 0.0 mm
13:31 20.8 °C 12.0 °C 1008.0 hPa West 12.2 km/h 17.2 km/h 57 % 0.0 mm
13:36 21.7 °C 13.0 °C 1008.0 hPa SSW 12.6 km/h 15.8 km/h 56 % 0.0 mm
13:41 21.7 °C 12.0 °C 1008.0 hPa SW 6.4 km/h 19.5 km/h 54 % 0.0 mm
13:46 22.1 °C 13.0 °C 1008.0 hPa West 9.0 km/h 19.5 km/h 54 % 0.0 mm
13:51 21.7 °C 12.0 °C 1008.0 hPa SSW 6.4 km/h 20.6 km/h 54 % 0.0 mm
13:56 21.8 °C 12.0 °C 1008.0 hPa WSW 13.7 km/h 20.6 km/h 53 % 0.0 mm
14:01 21.7 °C 12.0 °C 1008.0 hPa WSW 12.2 km/h 16.6 km/h 52 % 0.0 mm
14:06 21.7 °C 12.0 °C 1008.0 hPa SW 9.3 km/h 16.6 km/h 53 % 0.0 mm
14:11 21.7 °C 12.0 °C 1007.0 hPa WSW 6.4 km/h 14.8 km/h 54 % 0.0 mm
14:16 21.7 °C 12.0 °C 1007.0 hPa WSW 13.0 km/h 14.0 km/h 52 % 0.0 mm
14:22 21.9 °C 12.0 °C 1007.0 hPa WSW 10.5 km/h 15.4 km/h 52 % 0.0 mm
14:27 21.8 °C 11.0 °C 1008.0 hPa WSW 10.5 km/h 20.1 km/h 50 % 0.0 mm
14:31 21.5 °C 12.0 °C 1008.0 hPa WSW 10.1 km/h 20.1 km/h 52 % 0.0 mm
14:37 21.4 °C 11.0 °C 1008.0 hPa West 8.7 km/h 16.6 km/h 52 % 0.0 mm
14:42 21.5 °C 12.0 °C 1008.0 hPa SW 9.7 km/h 14.0 km/h 52 % 0.0 mm
14:47 21.5 °C 12.0 °C 1008.0 hPa WSW 8.7 km/h 15.4 km/h 53 % 0.0 mm
14:52 21.8 °C 11.0 °C 1008.0 hPa WSW 19.5 km/h 20.1 km/h 51 % 0.0 mm
14:57 22.2 °C 12.0 °C 1008.0 hPa WSW 11.6 km/h 24.8 km/h 51 % 0.0 mm
15:02 22.7 °C 11.0 °C 1008.0 hPa WSW 12.2 km/h 27.0 km/h 48 % 0.0 mm
15:07 23.0 °C 12.0 °C 1008.0 hPa West 16.9 km/h 27.0 km/h 48 % 0.0 mm
15:12 22.3 °C 11.0 °C 1007.0 hPa West 20.1 km/h 20.9 km/h 47 % 0.0 mm
15:17 22.0 °C 11.0 °C 1007.0 hPa WSW 12.6 km/h 20.9 km/h 49 % 0.0 mm
15:22 21.7 °C 11.0 °C 1007.0 hPa West 12.6 km/h 20.6 km/h 49 % 0.0 mm
15:27 22.0 °C 11.0 °C 1008.0 hPa West 9.7 km/h 20.6 km/h 50 % 0.0 mm
15:32 22.8 °C 11.0 °C 1008.0 hPa West 12.6 km/h 23.8 km/h 48 % 0.0 mm
15:37 22.9 °C 11.0 °C 1008.0 hPa West 13.7 km/h 24.8 km/h 45 % 0.0 mm
15:42 22.7 °C 10.0 °C 1007.0 hPa West 11.1 km/h 24.8 km/h 44 % 0.0 mm
15:47 23.0 °C 10.0 °C 1007.0 hPa West 15.8 km/h 23.8 km/h 44 % 0.0 mm
15:52 23.8 °C 10.0 °C 1007.0 hPa SSW 11.1 km/h 21.2 km/h 42 % 0.0 mm
15:57 24.1 °C 10.0 °C 1007.0 hPa WSW 17.7 km/h 24.5 km/h 40 % 0.0 mm
16:02 23.6 °C 10.0 °C 1007.0 hPa WSW 12.2 km/h 25.9 km/h 41 % 0.0 mm
16:07 23.6 °C 10.0 °C 1007.0 hPa West 12.6 km/h 25.9 km/h 42 % 0.0 mm
16:13 24.0 °C 10.0 °C 1007.0 hPa WSW 20.9 km/h 28.0 km/h 41 % 0.0 mm
16:18 24.2 °C 10.0 °C 1007.0 hPa WSW 11.9 km/h 28.8 km/h 41 % 0.0 mm
16:23 24.2 °C 10.0 °C 1007.0 hPa WSW 16.3 km/h 28.8 km/h 41 % 0.0 mm
16:28 24.0 °C 10.0 °C 1007.0 hPa West 20.1 km/h 23.8 km/h 41 % 0.0 mm
16:33 24.1 °C 10.0 °C 1007.0 hPa WSW 16.3 km/h 27.4 km/h 41 % 0.0 mm
16:38 24.3 °C 10.0 °C 1007.0 hPa SSW 16.3 km/h 35.6 km/h 40 % 0.0 mm
16:43 24.3 °C 10.0 °C 1007.0 hPa West 27.7 km/h 35.6 km/h 39 % 0.0 mm
16:48 24.0 °C 9.0 °C 1007.0 hPa WNW 6.4 km/h 28.0 km/h 38 % 0.0 mm
16:53 23.1 °C 9.0 °C 1007.0 hPa WSW 16.3 km/h 28.0 km/h 41 % 0.0 mm
16:54 23.3 °C 9.0 °C 1007.0 hPa West 21.6 km/h 25.6 km/h 41 % 0.0 mm
16:59 23.8 °C 10.0 °C 1007.0 hPa WSW 24.5 km/h 25.6 km/h 41 % 0.0 mm
17:04 24.0 °C 10.0 °C 1007.0 hPa WSW 11.9 km/h 25.6 km/h 40 % 0.0 mm
17:09 23.6 °C 9.0 °C 1007.0 hPa West 10.1 km/h 25.6 km/h 40 % 0.0 mm
17:14 22.8 °C 9.0 °C 1008.0 hPa West 20.1 km/h 25.3 km/h 41 % 0.0 mm
17:19 23.1 °C 9.0 °C 1008.0 hPa WSW 10.5 km/h 25.3 km/h 41 % 0.0 mm
17:24 23.8 °C 9.0 °C 1008.0 hPa West 23.0 km/h 27.4 km/h 40 % 0.0 mm
17:29 23.1 °C 9.0 °C 1007.0 hPa West 17.7 km/h 27.4 km/h 40 % 0.0 mm
17:34 23.4 °C 9.0 °C 1007.0 hPa WSW 28.0 km/h 28.0 km/h 41 % 0.0 mm
17:40 23.4 °C 9.0 °C 1007.0 hPa West 20.6 km/h 28.0 km/h 41 % 0.0 mm
17:44 23.5 °C 10.0 °C 1007.0 hPa West 25.6 km/h 25.6 km/h 42 % 0.0 mm
17:50 23.6 °C 10.0 °C 1007.0 hPa WSW 10.5 km/h 25.6 km/h 42 % 0.0 mm
17:55 23.7 °C 10.0 °C 1007.0 hPa West 19.5 km/h 24.8 km/h 41 % 0.0 mm
18:00 23.5 °C 9.0 °C 1007.0 hPa West 16.9 km/h 28.5 km/h 40 % 0.0 mm
18:05 23.2 °C 9.0 °C 1007.0 hPa West 23.0 km/h 31.4 km/h 40 % 0.0 mm
18:10 23.2 °C 10.0 °C 1007.0 hPa WSW 28.5 km/h 31.4 km/h 42 % 0.0 mm
18:15 23.2 °C 10.0 °C 1008.0 hPa West 22.4 km/h 28.5 km/h 43 % 0.0 mm
18:20 23.2 °C 10.0 °C 1008.0 hPa WSW 20.9 km/h 28.0 km/h 43 % 0.0 mm
18:25 22.9 °C 10.0 °C 1008.0 hPa WSW 20.1 km/h 28.5 km/h 43 % 0.0 mm
18:30 22.3 °C 9.0 °C 1007.0 hPa West 21.2 km/h 28.5 km/h 43 % 0.0 mm
18:35 22.5 °C 9.0 °C 1007.0 hPa West 24.5 km/h 28.0 km/h 43 % 0.0 mm
18:40 22.3 °C 9.0 °C 1008.0 hPa WSW 20.1 km/h 28.5 km/h 43 % 0.0 mm
18:45 22.1 °C 9.0 °C 1008.0 hPa WSW 15.8 km/h 28.5 km/h 44 % 0.0 mm
18:50 21.9 °C 10.0 °C 1008.0 hPa WSW 16.6 km/h 22.4 km/h 45 % 0.0 mm
18:52 21.8 °C 9.0 °C 1008.0 hPa West 16.9 km/h 22.4 km/h 45 % 0.0 mm
18:57 21.7 °C 9.0 °C 1008.0 hPa WSW 25.3 km/h 29.1 km/h 45 % 0.0 mm
19:02 21.3 °C 10.0 °C 1008.0 hPa WSW 27.4 km/h 29.1 km/h 47 % 0.0 mm
19:07 21.2 °C 10.0 °C 1008.0 hPa West 23.3 km/h 27.4 km/h 48 % 0.0 mm
19:12 21.0 °C 10.0 °C 1008.0 hPa WSW 24.8 km/h 25.3 km/h 49 % 0.0 mm
19:17 20.9 °C 11.0 °C 1008.0 hPa WSW 26.7 km/h 28.5 km/h 51 % 0.0 mm
19:22 20.9 °C 10.0 °C 1008.0 hPa West 25.6 km/h 36.0 km/h 50 % 0.0 mm
19:27 20.6 °C 10.0 °C 1008.0 hPa West 24.8 km/h 36.0 km/h 50 % 0.0 mm
19:32 20.3 °C 10.0 °C 1008.0 hPa West 16.3 km/h 35.2 km/h 50 % 0.0 mm
19:37 20.1 °C 9.0 °C 1008.0 hPa West 23.3 km/h 32.0 km/h 50 % 0.0 mm
19:42 20.0 °C 9.0 °C 1008.0 hPa West 20.1 km/h 32.0 km/h 50 % 0.0 mm
19:47 19.9 °C 10.0 °C 1008.0 hPa SSW 16.9 km/h 30.9 km/h 51 % 0.0 mm
19:53 19.8 °C 10.0 °C 1008.0 hPa West 29.9 km/h 29.9 km/h 53 % 0.0 mm
19:58 19.7 °C 10.0 °C 1008.0 hPa WSW 16.9 km/h 29.9 km/h 54 % 0.0 mm
20:03 19.6 °C 10.0 °C 1008.0 hPa West 15.8 km/h 25.6 km/h 55 % 0.0 mm
20:08 19.5 °C 10.0 °C 1008.0 hPa WSW 16.9 km/h 27.7 km/h 54 % 0.0 mm
20:13 19.5 °C 10.0 °C 1008.0 hPa West 20.6 km/h 27.7 km/h 55 % 0.0 mm
20:18 19.4 °C 10.0 °C 1008.0 hPa West 12.2 km/h 21.2 km/h 56 % 0.0 mm
20:23 19.3 °C 11.0 °C 1008.0 hPa West 17.7 km/h 27.7 km/h 57 % 0.0 mm
20:28 19.2 °C 11.0 °C 1009.0 hPa WSW 23.8 km/h 27.7 km/h 59 % 0.0 mm
20:33 19.1 °C 11.0 °C 1009.0 hPa West 24.8 km/h 28.5 km/h 60 % 0.0 mm
20:38 19.0 °C 12.0 °C 1009.0 hPa WSW 20.6 km/h 31.7 km/h 62 % 0.0 mm
20:43 18.9 °C 12.0 °C 1008.0 hPa WSW 27.0 km/h 31.7 km/h 62 % 0.0 mm
20:48 18.9 °C 12.0 °C 1008.0 hPa WSW 23.8 km/h 28.0 km/h 63 % 0.0 mm
20:53 18.8 °C 12.0 °C 1008.0 hPa West 20.1 km/h 24.5 km/h 64 % 0.0 mm
20:58 18.8 °C 12.0 °C 1009.0 hPa WSW 15.8 km/h 24.5 km/h 64 % 0.0 mm
21:03 18.7 °C 12.0 °C 1009.0 hPa WSW 18.0 km/h 28.5 km/h 64 % 0.0 mm
21:08 18.6 °C 12.0 °C 1009.0 hPa WNW 17.7 km/h 28.5 km/h 63 % 0.0 mm
21:13 18.4 °C 12.0 °C 1009.0 hPa West 21.9 km/h 25.6 km/h 64 % 0.0 mm
21:18 18.2 °C 12.0 °C 1009.0 hPa West 17.2 km/h 25.6 km/h 65 % 0.0 mm
21:23 18.0 °C 12.0 °C 1009.0 hPa West 12.6 km/h 25.3 km/h 66 % 0.0 mm
21:29 17.9 °C 12.0 °C 1009.0 hPa West 20.1 km/h 24.5 km/h 66 % 0.0 mm
21:34 17.7 °C 12.0 °C 1009.0 hPa WSW 12.2 km/h 28.5 km/h 67 % 0.0 mm
21:39 17.6 °C 12.0 °C 1009.0 hPa WSW 11.9 km/h 28.5 km/h 68 % 0.0 mm
21:44 17.4 °C 12.0 °C 1009.0 hPa West 10.1 km/h 15.8 km/h 68 % 0.0 mm
21:49 17.2 °C 12.0 °C 1009.0 hPa SSW 10.5 km/h 14.0 km/h 69 % 0.0 mm
21:54 17.0 °C 12.0 °C 1009.0 hPa SW 13.7 km/h 14.8 km/h 70 % 0.0 mm
21:59 17.0 °C 12.0 °C 1010.0 hPa WSW 11.6 km/h 15.4 km/h 71 % 0.0 mm
22:04 16.9 °C 12.0 °C 1010.0 hPa WSW 9.7 km/h 17.7 km/h 71 % 0.0 mm
22:09 16.8 °C 12.0 °C 1010.0 hPa WSW 12.6 km/h 23.8 km/h 72 % 0.0 mm
22:14 16.8 °C 12.0 °C 1009.0 hPa SW 13.7 km/h 23.8 km/h 72 % 0.0 mm
22:19 16.8 °C 12.0 °C 1009.0 hPa WSW 12.2 km/h 20.9 km/h 72 % 0.0 mm
22:24 16.6 °C 12.0 °C 1009.0 hPa WSW 9.0 km/h 18.3 km/h 72 % 0.0 mm
22:29 16.4 °C 12.0 °C 1010.0 hPa WSW 9.0 km/h 13.0 km/h 72 % 0.0 mm
22:34 16.3 °C 12.0 °C 1010.0 hPa WSW 16.9 km/h 17.7 km/h 74 % 0.0 mm
22:39 16.3 °C 12.0 °C 1010.0 hPa SW 10.1 km/h 17.7 km/h 74 % 0.0 mm
22:44 16.3 °C 12.0 °C 1008.0 hPa WSW 10.5 km/h 17.2 km/h 75 % 0.0 mm
22:49 16.2 °C 12.0 °C 1008.0 hPa WSW 11.9 km/h 16.9 km/h 75 % 0.0 mm
22:55 16.0 °C 12.0 °C 1008.0 hPa WSW 6.1 km/h 12.6 km/h 75 % 0.0 mm
23:00 15.9 °C 12.0 °C 1009.0 hPa West 7.9 km/h 11.9 km/h 76 % 0.0 mm
23:05 15.9 °C 12.0 °C 1009.0 hPa West 14.0 km/h 14.0 km/h 77 % 0.0 mm
23:10 15.9 °C 12.0 °C 1009.0 hPa WSW 7.9 km/h 14.0 km/h 77 % 0.0 mm
23:11 15.9 °C 12.0 °C 1009.0 hPa WSW 10.1 km/h 14.0 km/h 78 % 0.0 mm
23:16 15.7 °C 12.0 °C 1009.0 hPa SW 6.1 km/h 14.0 km/h 77 % 0.0 mm
23:21 15.5 °C 12.0 °C 1009.0 hPa Calm   11.9 km/h 77 % 0.0 mm
23:26 15.4 °C 12.0 °C 1009.0 hPa Calm   10.1 km/h 78 % 0.0 mm
23:31 15.2 °C 12.0 °C 1009.0 hPa WSW 7.9 km/h 11.6 km/h 79 % 0.0 mm
23:36 15.2 °C 12.0 °C 1009.0 hPa Calm   11.6 km/h 79 % 0.0 mm
23:41 15.1 °C 12.0 °C 1009.0 hPa SSW 7.6 km/h 9.3 km/h 80 % 0.0 mm
23:46 15.0 °C 12.0 °C 1009.0 hPa Calm   10.5 km/h 81 % 0.0 mm
23:51 14.9 °C 12.0 °C 1009.0 hPa WSW 9.3 km/h 10.5 km/h 82 % 0.0 mm
23:56 14.9 °C 12.0 °C 1009.0 hPa WSW 7.9 km/h 11.6 km/h 82 % 0.0 mm
Le Gheer Warneton
Courtoisie de Weather Underground - 2.25 mb

Mise a jour : 17/12/2017 22:38:11
Généré par Cumulus 1.9.4 (1099)